owner,sensor,date,latitude,longitude,vertical_datum,mass_concentration_of_oxygen_in_sea_water,qcFlag 
DISL,ioos:station:DISL:PPTA:1,2014-01-01T06:30:00Z,30.2791,-87.5561,1.146,8.41,1111122 
DISL,ioos:station:DISL:PPTA:1,2014-01-01T07:00:00Z,30.2791,-87.5561,1.12,7.45,1111122 
DISL,ioos:station:DISL:PPTA:1,2014-01-01T07:30:00Z,30.2791,-87.5561,1.114,7.86,1111122 
DISL,ioos:station:DISL:PPTA:1,2014-01-01T08:00:00Z,30.2791,-87.5561,1.088,7.64,1111122 
DISL,ioos:station:DISL:PPTA:1,2014-01-01T08:30:00Z,30.2791,-87.5561,1.066,7.47,1111122 
DISL,ioos:station:DISL:PPTA:1,2014-01-01T09:00:00Z,30.2791,-87.5561,1.034,8.38,1111122 
DISL,ioos:station:DISL:PPTA:1,2014-01-01T09:30:00Z,30.2791,-87.5561,1.021,8.49,1111122 
DISL,ioos:station:DISL:PPTA:1,2014-01-01T10:00:00Z,30.2791,-87.5561,0.997,8.6,1111122 
DISL,ioos:station:DISL:PPTA:1,2014-01-01T10:30:00Z,30.2791,-87.5561,0.964,8.63,1111122 
DISL,ioos:station:DISL:PPTA:1,2014-01-01T11:00:00Z,30.2791,-87.5561,0.99,8.56,1111122 
DISL,ioos:station:DISL:PPTA:1,2014-01-01T11:30:00Z,30.2791,-87.5561,0.966,8.62,1111122 
DISL,ioos:station:DISL:PPTA:1,2014-01-01T12:00:00Z,30.2791,-87.5561,0.959,8.72,1111122 
DISL,ioos:station:DISL:PPTA:1,2014-01-01T12:30:00Z,30.2791,-87.5561,0.958,8.76,1111122 
DISL,ioos:station:DISL:PPTA:1,2014-01-01T13:00:00Z,30.2791,-87.5561,0.958,8.91,1111122 
DISL,ioos:station:DISL:PPTA:1,2014-01-01T13:30:00Z,30.2791,-87.5561,0.939,8.99,1111122 
DISL,ioos:station:DISL:PPTA:1,2014-01-01T14:00:00Z,30.2791,-87.5561,0.931,9.01,1111122 
DISL,ioos:station:DISL:PPTA:1,2014-01-01T14:30:00Z,30.2791,-87.5561,0.942,9.09,1111122 
DISL,ioos:station:DISL:PPTA:1,2014-01-01T15:00:00Z,30.2791,-87.5561,0.945,9.13,1111122 
DISL,ioos:station:DISL:PPTA:1,2014-01-01T15:30:00Z,30.2791,-87.5561,0.964,9.19,1111122 
DISL,ioos:station:DISL:PPTA:1,2014-01-01T16:00:00Z,30.2791,-87.5561,0.97,9.16,1111122 
DISL,ioos:station:DISL:PPTA:1,2014-01-01T16:30:00Z,30.2791,-87.5561,1.004,9.38,1111122 
DISL,ioos:station:DISL:PPTA:1,2014-01-01T17:00:00Z,30.2791,-87.5561,1.004,9.3,1111122 
DISL,ioos:station:DISL:PPTA:1,2014-01-01T17:30:00Z,30.2791,-87.5561,1.018,8.38,1111122 
DISL,ioos:station:DISL:PPTA:1,2014-01-01T18:00:00Z,30.2791,-87.5561,1.032,9.13,1111122 
DISL,ioos:station:DISL:PPTA:1,2014-01-01T18:30:00Z,30.2791,-87.5561,1.001,9.23,1111122 
DISL,ioos:station:DISL:PPTA:1,2014-01-01T19:00:00Z,30.2791,-87.5561,1.034,8.8,1111122 
DISL,ioos:station:DISL:PPTA:1,2014-01-01T19:30:00Z,30.2791,-87.5561,1.065,8.24,1111122 
DISL,ioos:station:DISL:PPTA:1,2014-01-01T20:00:00Z,30.2791,-87.5561,1.073,8.37,1111122 
DISL,ioos:station:DISL:PPTA:1,2014-01-01T20:30:00Z,30.2791,-87.5561,1.082,8.75,1111122 
DISL,ioos:station:DISL:PPTA:1,2014-01-01T21:00:00Z,30.2791,-87.5561,1.097,8.7,1111122 
DISL,ioos:station:DISL:PPTA:1,2014-01-01T21:30:00Z,30.2791,-87.5561,1.13,8.72,1111122 
DISL,ioos:station:DISL:PPTA:1,2014-01-01T22:00:00Z,30.2791,-87.5561,1.153,8.66,1111122 
DISL,ioos:station:DISL:PPTA:1,2014-01-01T22:30:00Z,30.2791,-87.5561,1.17,8.65,1111122 
DISL,ioos:station:DISL:PPTA:1,2014-01-01T23:00:00Z,30.2791,-87.5561,1.222,8.52,1111122 
DISL,ioos:station:DISL:PPTA:1,2014-01-01T23:30:00Z,30.2791,-87.5561,1.247,8.54,1111122 
DISL,ioos:station:DISL:PPTA:1,2014-01-02T00:00:00Z,30.2791,-87.5561,1.271,8.37,1111122 
DISL,ioos:station:DISL:PPTA:1,2014-01-02T00:30:00Z,30.2791,-87.5561,1.306,8.34,1111122 
DISL,ioos:station:DISL:PPTA:1,2014-01-02T01:00:00Z,30.2791,-87.5561,1.307,8.35,1111122 
DISL,ioos:station:DISL:PPTA:1,2014-01-02T01:30:00Z,30.2791,-87.5561,1.322,8.39,1111122 
DISL,ioos:station:DISL:PPTA:1,2014-01-02T02:00:00Z,30.2791,-87.5561,1.338,8.27,1111122 
DISL,ioos:station:DISL:PPTA:1,2014-01-02T02:30:00Z,30.2791,-87.5561,1.347,8.36,1111122 
DISL,ioos:station:DISL:PPTA:1,2014-01-02T03:00:00Z,30.2791,-87.5561,1.344,8.23,1111122 
DISL,ioos:station:DISL:PPTA:1,2014-01-02T03:30:00Z,30.2791,-87.5561,1.351,8.29,1111122 
DISL,ioos:station:DISL:PPTA:1,2014-01-02T04:00:00Z,30.2791,-87.5561,1.329,8.28,1111122 
DISL,ioos:station:DISL:PPTA:1,2014-01-02T04:30:00Z,30.2791,-87.5561,1.354,8.24,1111122 
DISL,ioos:station:DISL:PPTA:1,2014-01-02T05:00:00Z,30.2791,-87.5561,1.348,8.27,1111122 
DISL,ioos:station:DISL:PPTA:1,2014-01-02T05:30:00Z,30.2791,-87.5561,1.355,8.33,1111122 
DISL,ioos:station:DISL:PPTA:1,2014-01-02T06:00:00Z,30.2791,-87.5561,1.332,8.4,1111122 
DISL,ioos:station:DISL:PPTA:1,2014-01-02T06:30:00Z,30.2791,-87.5561,1.348,8.25,1111122 
DISL,ioos:station:DISL:PPTA:1,2014-01-02T07:00:00Z,30.2791,-87.5561,1.314,8.37,1111122 
DISL,ioos:station:DISL:PPTA:1,2014-01-02T07:30:00Z,30.2791,-87.5561,1.25,8.29,1111122 
DISL,ioos:station:DISL:PPTA:1,2014-01-02T08:00:00Z,30.2791,-87.5561,1.226,8.3,1111122 
DISL,ioos:station:DISL:PPTA:1,2014-01-02T08:30:00Z,30.2791,-87.5561,1.184,8.39,1111122 
DISL,ioos:station:DISL:PPTA:1,2014-01-02T09:00:00Z,30.2791,-87.5561,1.164,8.21,1111122 
DISL,ioos:station:DISL:PPTA:1,2014-01-02T09:30:00Z,30.2791,-87.5561,1.193,8.42,1111122 
DISL,ioos:station:DISL:PPTA:1,2014-01-02T10:00:00Z,30.2791,-87.5561,1.163,8.34,1111122 
DISL,ioos:station:DISL:PPTA:1,2014-01-02T10:30:00Z,30.2791,-87.5561,1.155,8.33,1111122 
DISL,ioos:station:DISL:PPTA:1,2014-01-02T11:00:00Z,30.2791,-87.5561,1.147,8.52,1111122 
DISL,ioos:station:DISL:PPTA:1,2014-01-02T11:30:00Z,30.2791,-87.5561,1.14,8.75,1111122 
DISL,ioos:station:DISL:PPTA:1,2014-01-02T12:00:00Z,30.2791,-87.5561,1.115,8.78,1111122 
DISL,ioos:station:DISL:PPTA:1,2014-01-02T12:30:00Z,30.2791,-87.5561,1.123,8.7,1111122 
DISL,ioos:station:DISL:PPTA:1,2014-01-02T13:00:00Z,30.2791,-87.5561,1.102,8.7,1111122 
DISL,ioos:station:DISL:PPTA:1,2014-01-02T13:30:00Z,30.2791,-87.5561,1.095,8.72,1111122 
DISL,ioos:station:DISL:PPTA:1,2014-01-02T14:00:00Z,30.2791,-87.5561,1.094,8.82,1111122 
DISL,ioos:station:DISL:PPTA:1,2014-01-02T14:30:00Z,30.2791,-87.5561,1.082,8.88,1111122 
DISL,ioos:station:DISL:PPTA:1,2014-01-02T15:00:00Z,30.2791,-87.5561,1.086,8.91,1111122 
DISL,ioos:station:DISL:PPTA:1,2014-01-02T15:30:00Z,30.2791,-87.5561,1.067,9.06,1111122 
DISL,ioos:station:DISL:PPTA:1,2014-01-02T16:00:00Z,30.2791,-87.5561,1.033,9.14,1111122 
DISL,ioos:station:DISL:PPTA:1,2014-01-02T16:30:00Z,30.2791,-87.5561,1.047,9.12,1111122 
DISL,ioos:station:DISL:PPTA:1,2014-01-02T17:00:00Z,30.2791,-87.5561,1.086,9.44,1111122 
DISL,ioos:station:DISL:PPTA:1,2014-01-02T17:30:00Z,30.2791,-87.5561,1.072,9.32,1111122 
DISL,ioos:station:DISL:PPTA:1,2014-01-02T18:00:00Z,30.2791,-87.5561,1.097,9.49,1111122 
DISL,ioos:station:DISL:PPTA:1,2014-01-02T18:30:00Z,30.2791,-87.5561,1.111,9.27,1111122 
DISL,ioos:station:DISL:PPTA:1,2014-01-02T19:00:00Z,30.2791,-87.5561,1.086,9.2,1111122 
DISL,ioos:station:DISL:PPTA:1,2014-01-02T19:30:00Z,30.2791,-87.5561,1.074,9.1,1111122 
DISL,ioos:station:DISL:PPTA:1,2014-01-02T20:00:00Z,30.2791,-87.5561,1.131,9.52,1111122 
DISL,ioos:station:DISL:PPTA:1,2014-01-02T20:30:00Z,30.2791,-87.5561,1.122,9.49,1111122 
DISL,ioos:station:DISL:PPTA:1,2014-01-02T21:00:00Z,30.2791,-87.5561,1.106,9.62,1111122 
DISL,ioos:station:DISL:PPTA:1,2014-01-02T21:30:00Z,30.2791,-87.5561,1.16,9.63,1111122 
DISL,ioos:station:DISL:PPTA:1,2014-01-02T22:00:00Z,30.2791,-87.5561,1.114,9.12,1111122 
DISL,ioos:station:DISL:PPTA:1,2014-01-02T22:30:00Z,30.2791,-87.5561,1.079,9.15,1111122 
DISL,ioos:station:DISL:PPTA:1,2014-01-02T23:00:00Z,30.2791,-87.5561,1.107,8.73,1111122 
DISL,ioos:station:DISL:PPTA:1,2014-01-02T23:30:00Z,30.2791,-87.5561,1.123,9.42,1111122 
DISL,ioos:station:DISL:PPTA:1,2014-01-03T00:00:00Z,30.2791,-87.5561,1.142,9.01,1111122 
DISL,ioos:station:DISL:PPTA:1,2014-01-03T00:30:00Z,30.2791,-87.5561,1.179,8.4,1111122 
DISL,ioos:station:DISL:PPTA:1,2014-01-03T01:00:00Z,30.2791,-87.5561,1.199,8.75,1111122 
DISL,ioos:station:DISL:PPTA:1,2014-01-03T01:30:00Z,30.2791,-87.5561,1.202,8.43,1111122 
DISL,ioos:station:DISL:PPTA:1,2014-01-03T02:00:00Z,30.2791,-87.5561,1.221,8.69,1111122 
DISL,ioos:station:DISL:PPTA:1,2014-01-03T02:30:00Z,30.2791,-87.5561,1.234,8.29,1111122 
DISL,ioos:station:DISL:PPTA:1,2014-01-03T03:00:00Z,30.2791,-87.5561,1.216,8.19,1111122 
DISL,ioos:station:DISL:PPTA:1,2014-01-03T03:30:00Z,30.2791,-87.5561,1.245,8.21,1111122 
DISL,ioos:station:DISL:PPTA:1,2014-01-03T04:00:00Z,30.2791,-87.5561,1.203,8.14,1111122 
DISL,ioos:station:DISL:PPTA:1,2014-01-03T04:30:00Z,30.2791,-87.5561,1.221,8.16,1111122 
DISL,ioos:station:DISL:PPTA:1,2014-01-03T05:00:00Z,30.2791,-87.5561,1.206,8.1,1111122 
DISL,ioos:station:DISL:PPTA:1,2014-01-03T05:30:00Z,30.2791,-87.5561,1.192,8.19,1111122 
DISL,ioos:station:DISL:PPTA:1,2014-01-03T06:00:00Z,30.2791,-87.5561,1.192,8.03,1111122 
DISL,ioos:station:DISL:PPTA:1,2014-01-03T06:30:00Z,30.2791,-87.5561,1.14,8.04,1111122 
DISL,ioos:station:DISL:PPTA:1,2014-01-03T07:00:00Z,30.2791,-87.5561,1.128,8.72,1111122 
DISL,ioos:station:DISL:PPTA:1,2014-01-03T07:30:00Z,30.2791,-87.5561,1.124,8.93,1111122 
DISL,ioos:station:DISL:PPTA:1,2014-01-03T08:00:00Z,30.2791,-87.5561,1.071,8.65,1111122 
DISL,ioos:station:DISL:PPTA:1,2014-01-03T08:30:00Z,30.2791,-87.5561,1.042,8.53,1111122 
DISL,ioos:station:DISL:PPTA:1,2014-01-03T09:00:00Z,30.2791,-87.5561,0.98,8.89,1111122 
DISL,ioos:station:DISL:PPTA:1,2014-01-03T09:30:00Z,30.2791,-87.5561,0.948,8.82,1111122 
DISL,ioos:station:DISL:PPTA:1,2014-01-03T10:00:00Z,30.2791,-87.5561,0.943,9.01,1111122 
DISL,ioos:station:DISL:PPTA:1,2014-01-03T10:30:00Z,30.2791,-87.5561,0.894,8.84,1111122 
DISL,ioos:station:DISL:PPTA:1,2014-01-03T11:00:00Z,30.2791,-87.5561,0.885,9.24,1111122 
DISL,ioos:station:DISL:PPTA:1,2014-01-03T11:30:00Z,30.2791,-87.5561,0.872,9.28,1111122 
DISL,ioos:station:DISL:PPTA:1,2014-01-03T12:00:00Z,30.2791,-87.5561,0.856,9.46,1111122 
DISL,ioos:station:DISL:PPTA:1,2014-01-03T12:30:00Z,30.2791,-87.5561,0.848,9.51,1111122 
DISL,ioos:station:DISL:PPTA:1,2014-01-03T13:00:00Z,30.2791,-87.5561,0.833,9.57,1111122 
DISL,ioos:station:DISL:PPTA:1,2014-01-03T13:30:00Z,30.2791,-87.5561,0.81,9.61,1111122 
DISL,ioos:station:DISL:PPTA:1,2014-01-03T14:00:00Z,30.2791,-87.5561,0.816,9.63,1111122 
DISL,ioos:station:DISL:PPTA:1,2014-01-03T14:30:00Z,30.2791,-87.5561,0.792,9.69,1111122 
DISL,ioos:station:DISL:PPTA:1,2014-01-03T15:00:00Z,30.2791,-87.5561,0.77,9.73,1111122 
DISL,ioos:station:DISL:PPTA:1,2014-01-03T15:30:00Z,30.2791,-87.5561,0.769,9.76,1111122 
DISL,ioos:station:DISL:PPTA:1,2014-01-03T16:00:00Z,30.2791,-87.5561,0.791,9.76,1111122 
DISL,ioos:station:DISL:PPTA:1,2014-01-03T16:30:00Z,30.2791,-87.5561,0.801,9.77,1111122 
DISL,ioos:station:DISL:PPTA:1,2014-01-03T17:00:00Z,30.2791,-87.5561,0.824,9.84,1111122 
DISL,ioos:station:DISL:PPTA:1,2014-01-03T17:30:00Z,30.2791,-87.5561,0.837,9.91,1111122 
DISL,ioos:station:DISL:PPTA:1,2014-01-03T18:00:00Z,30.2791,-87.5561,0.853,9.97,1111122 
DISL,ioos:station:DISL:PPTA:1,2014-01-03T18:30:00Z,30.2791,-87.5561,0.859,9.98,1111122 
DISL,ioos:station:DISL:PPTA:1,2014-01-03T19:00:00Z,30.2791,-87.5561,0.869,10.04,1111122 
DISL,ioos:station:DISL:PPTA:1,2014-01-03T19:30:00Z,30.2791,-87.5561,0.876,10.08,1111122 
DISL,ioos:station:DISL:PPTA:1,2014-01-03T20:00:00Z,30.2791,-87.5561,0.869,10.08,1111122 
DISL,ioos:station:DISL:PPTA:1,2014-01-03T20:30:00Z,30.2791,-87.5561,0.886,10.11,1111122 
DISL,ioos:station:DISL:PPTA:1,2014-01-03T21:00:00Z,30.2791,-87.5561,0.882,10.11,1111122 
DISL,ioos:station:DISL:PPTA:1,2014-01-03T21:30:00Z,30.2791,-87.5561,0.85,10.13,1111122 
DISL,ioos:station:DISL:PPTA:1,2014-01-03T22:00:00Z,30.2791,-87.5561,0.879,10.12,1111122 
DISL,ioos:station:DISL:PPTA:1,2014-01-03T22:30:00Z,30.2791,-87.5561,0.893,10.15,1111122 
DISL,ioos:station:DISL:PPTA:1,2014-01-03T23:00:00Z,30.2791,-87.5561,0.899,9.66,1111122 
DISL,ioos:station:DISL:PPTA:1,2014-01-03T23:30:00Z,30.2791,-87.5561,0.921,8.34,1111122 
DISL,ioos:station:DISL:PPTA:1,2014-01-04T00:00:00Z,30.2791,-87.5561,0.948,8.16,1111122 
DISL,ioos:station:DISL:PPTA:1,2014-01-04T00:30:00Z,30.2791,-87.5561,0.964,8.05,1111122 
DISL,ioos:station:DISL:PPTA:1,2014-01-04T01:00:00Z,30.2791,-87.5561,1.003,8.04,1111122 
DISL,ioos:station:DISL:PPTA:1,2014-01-04T01:30:00Z,30.2791,-87.5561,1.023,8.04,1111122 
DISL,ioos:station:DISL:PPTA:1,2014-01-04T02:00:00Z,30.2791,-87.5561,1.035,7.99,1111122 
DISL,ioos:station:DISL:PPTA:1,2014-01-04T02:30:00Z,30.2791,-87.5561,1.057,7.97,1111122 
DISL,ioos:station:DISL:PPTA:1,2014-01-04T03:00:00Z,30.2791,-87.5561,1.089,7.97,1111122 
DISL,ioos:station:DISL:PPTA:1,2014-01-04T03:30:00Z,30.2791,-87.5561,1.09,7.93,1111122 
DISL,ioos:station:DISL:PPTA:1,2014-01-04T04:00:00Z,30.2791,-87.5561,1.093,8.0,1111122 
DISL,ioos:station:DISL:PPTA:1,2014-01-04T04:30:00Z,30.2791,-87.5561,1.109,7.91,1111122 
DISL,ioos:station:DISL:PPTA:1,2014-01-04T05:00:00Z,30.2791,-87.5561,1.117,7.81,1111122 
DISL,ioos:station:DISL:PPTA:1,2014-01-04T05:30:00Z,30.2791,-87.5561,1.127,7.79,1111122 
DISL,ioos:station:DISL:PPTA:1,2014-01-04T06:00:00Z,30.2791,-87.5561,1.154,7.78,1111122 
DISL,ioos:station:DISL:PPTA:1,2014-01-04T06:30:00Z,30.2791,-87.5561,1.161,7.9,1111122 
DISL,ioos:station:DISL:PPTA:1,2014-01-04T07:00:00Z,30.2791,-87.5561,1.154,7.83,1111122 
DISL,ioos:station:DISL:PPTA:1,2014-01-04T07:30:00Z,30.2791,-87.5561,1.14,7.76,1111122 
DISL,ioos:station:DISL:PPTA:1,2014-01-04T08:00:00Z,30.2791,-87.5561,1.116,8.0,1111122 
DISL,ioos:station:DISL:PPTA:1,2014-01-04T08:30:00Z,30.2791,-87.5561,1.102,7.94,1111122 
DISL,ioos:station:DISL:PPTA:1,2014-01-04T09:00:00Z,30.2791,-87.5561,1.081,8.29,1111122 
DISL,ioos:station:DISL:PPTA:1,2014-01-04T09:30:00Z,30.2791,-87.5561,1.04,8.51,1111122 
DISL,ioos:station:DISL:PPTA:1,2014-01-04T10:00:00Z,30.2791,-87.5561,1.039,8.12,1111122 
DISL,ioos:station:DISL:PPTA:1,2014-01-04T10:30:00Z,30.2791,-87.5561,1.018,8.56,1111122 
DISL,ioos:station:DISL:PPTA:1,2014-01-04T11:00:00Z,30.2791,-87.5561,0.999,8.09,1111122 
DISL,ioos:station:DISL:PPTA:1,2014-01-04T11:30:00Z,30.2791,-87.5561,0.99,8.62,1111122 
DISL,ioos:station:DISL:PPTA:1,2014-01-04T12:00:00Z,30.2791,-87.5561,0.979,7.96,1111122 
DISL,ioos:station:DISL:PPTA:1,2014-01-04T12:30:00Z,30.2791,-87.5561,0.98,8.07,1111122 
DISL,ioos:station:DISL:PPTA:1,2014-01-04T13:00:00Z,30.2791,-87.5561,0.987,8.61,1111122 
DISL,ioos:station:DISL:PPTA:1,2014-01-04T13:30:00Z,30.2791,-87.5561,0.991,8.62,1111122 
DISL,ioos:station:DISL:PPTA:1,2014-01-04T14:00:00Z,30.2791,-87.5561,0.984,8.52,1111122 
DISL,ioos:station:DISL:PPTA:1,2014-01-04T14:30:00Z,30.2791,-87.5561,0.979,8.72,1111122 
DISL,ioos:station:DISL:PPTA:1,2014-01-04T15:00:00Z,30.2791,-87.5561,0.965,8.99,1111122 
DISL,ioos:station:DISL:PPTA:1,2014-01-04T15:30:00Z,30.2791,-87.5561,0.97,9.0,1111122 
DISL,ioos:station:DISL:PPTA:1,2014-01-04T16:00:00Z,30.2791,-87.5561,0.968,9.05,1111122 
DISL,ioos:station:DISL:PPTA:1,2014-01-04T16:30:00Z,30.2791,-87.5561,0.947,9.12,1111122 
DISL,ioos:station:DISL:PPTA:1,2014-01-04T17:00:00Z,30.2791,-87.5561,0.961,9.46,1111122 
DISL,ioos:station:DISL:PPTA:1,2014-01-04T17:30:00Z,30.2791,-87.5561,0.964,9.58,1111122 
DISL,ioos:station:DISL:PPTA:1,2014-01-04T18:00:00Z,30.2791,-87.5561,0.992,9.73,1111122 
DISL,ioos:station:DISL:PPTA:1,2014-01-04T18:30:00Z,30.2791,-87.5561,1.003,9.45,1111122 
DISL,ioos:station:DISL:PPTA:1,2014-01-04T19:00:00Z,30.2791,-87.5561,1.012,9.72,1111122 
DISL,ioos:station:DISL:PPTA:1,2014-01-04T19:30:00Z,30.2791,-87.5561,1.014,9.72,1111122 
DISL,ioos:station:DISL:PPTA:1,2014-01-04T20:00:00Z,30.2791,-87.5561,1.009,9.97,1111122 
DISL,ioos:station:DISL:PPTA:1,2014-01-04T20:30:00Z,30.2791,-87.5561,1.021,9.43,1111122 
DISL,ioos:station:DISL:PPTA:1,2014-01-04T21:00:00Z,30.2791,-87.5561,1.014,9.18,1111122 
DISL,ioos:station:DISL:PPTA:1,2014-01-04T21:30:00Z,30.2791,-87.5561,1.029,9.02,1111122 
DISL,ioos:station:DISL:PPTA:1,2014-01-04T22:00:00Z,30.2791,-87.5561,1.044,9.02,1111122 
DISL,ioos:station:DISL:PPTA:1,2014-01-04T22:30:00Z,30.2791,-87.5561,1.049,8.99,1111122 
DISL,ioos:station:DISL:PPTA:1,2014-01-04T23:00:00Z,30.2791,-87.5561,1.064,8.8,1111122 
DISL,ioos:station:DISL:PPTA:1,2014-01-04T23:30:00Z,30.2791,-87.5561,1.041,8.77,1111122 
DISL,ioos:station:DISL:PPTA:1,2014-01-05T00:00:00Z,30.2791,-87.5561,1.064,8.87,1111122 
DISL,ioos:station:DISL:PPTA:1,2014-01-05T00:30:00Z,30.2791,-87.5561,1.095,8.73,1111122 
DISL,ioos:station:DISL:PPTA:1,2014-01-05T01:00:00Z,30.2791,-87.5561,1.127,8.69,1111122 
DISL,ioos:station:DISL:PPTA:1,2014-01-05T01:30:00Z,30.2791,-87.5561,1.182,8.67,1111122 
DISL,ioos:station:DISL:PPTA:1,2014-01-05T02:00:00Z,30.2791,-87.5561,1.189,8.68,1111122 
DISL,ioos:station:DISL:PPTA:1,2014-01-05T02:30:00Z,30.2791,-87.5561,1.227,8.62,1111122 
DISL,ioos:station:DISL:PPTA:1,2014-01-05T03:00:00Z,30.2791,-87.5561,1.248,8.67,1111122 
DISL,ioos:station:DISL:PPTA:1,2014-01-05T03:30:00Z,30.2791,-87.5561,1.228,8.59,1111122 
DISL,ioos:station:DISL:PPTA:1,2014-01-05T04:00:00Z,30.2791,-87.5561,1.231,8.56,1111122 
DISL,ioos:station:DISL:PPTA:1,2014-01-05T04:30:00Z,30.2791,-87.5561,1.241,8.5,1111122 
DISL,ioos:station:DISL:PPTA:1,2014-01-05T05:00:00Z,30.2791,-87.5561,1.247,8.55,1111122 
DISL,ioos:station:DISL:PPTA:1,2014-01-05T05:30:00Z,30.2791,-87.5561,1.265,8.58,1111122 
DISL,ioos:station:DISL:PPTA:1,2014-01-05T06:00:00Z,30.2791,-87.5561,1.248,8.54,1111122 
DISL,ioos:station:DISL:PPTA:1,2014-01-05T06:30:00Z,30.2791,-87.5561,1.258,8.6,1111122 
DISL,ioos:station:DISL:PPTA:1,2014-01-05T07:00:00Z,30.2791,-87.5561,1.263,8.51,1111122 
DISL,ioos:station:DISL:PPTA:1,2014-01-05T07:30:00Z,30.2791,-87.5561,1.277,8.52,1111122 
DISL,ioos:station:DISL:PPTA:1,2014-01-05T08:00:00Z,30.2791,-87.5561,1.25,8.56,1111122 
DISL,ioos:station:DISL:PPTA:1,2014-01-05T08:30:00Z,30.2791,-87.5561,1.284,8.56,1111122 
DISL,ioos:station:DISL:PPTA:1,2014-01-05T09:00:00Z,30.2791,-87.5561,1.281,8.5,1111122 
DISL,ioos:station:DISL:PPTA:1,2014-01-05T09:30:00Z,30.2791,-87.5561,1.199,8.61,1111122 
DISL,ioos:station:DISL:PPTA:1,2014-01-05T10:00:00Z,30.2791,-87.5561,1.218,8.87,1111122 
DISL,ioos:station:DISL:PPTA:1,2014-01-05T10:30:00Z,30.2791,-87.5561,1.194,8.84,1111122 
DISL,ioos:station:DISL:PPTA:1,2014-01-05T11:00:00Z,30.2791,-87.5561,1.2,8.72,1111122 
DISL,ioos:station:DISL:PPTA:1,2014-01-05T11:30:00Z,30.2791,-87.5561,1.195,8.65,1111122 
DISL,ioos:station:DISL:PPTA:1,2014-01-05T12:00:00Z,30.2791,-87.5561,1.184,8.41,1111122 
DISL,ioos:station:DISL:PPTA:1,2014-01-05T12:30:00Z,30.2791,-87.5561,1.204,8.6,1111122 
DISL,ioos:station:DISL:PPTA:1,2014-01-05T13:00:00Z,30.2791,-87.5561,1.215,8.56,1111122 
DISL,ioos:station:DISL:PPTA:1,2014-01-05T13:30:00Z,30.2791,-87.5561,1.191,8.59,1111122 
DISL,ioos:station:DISL:PPTA:1,2014-01-05T14:00:00Z,30.2791,-87.5561,1.17,8.8,1111122 
DISL,ioos:station:DISL:PPTA:1,2014-01-05T14:30:00Z,30.2791,-87.5561,1.17,8.77,1111122 
DISL,ioos:station:DISL:PPTA:1,2014-01-05T15:00:00Z,30.2791,-87.5561,1.189,9.13,1111122 
DISL,ioos:station:DISL:PPTA:1,2014-01-05T15:30:00Z,30.2791,-87.5561,1.186,9.19,1111122 
DISL,ioos:station:DISL:PPTA:1,2014-01-05T16:00:00Z,30.2791,-87.5561,1.185,9.22,1111122 
DISL,ioos:station:DISL:PPTA:1,2014-01-05T16:30:00Z,30.2791,-87.5561,1.192,9.4,1111122 
DISL,ioos:station:DISL:PPTA:1,2014-01-05T17:00:00Z,30.2791,-87.5561,1.182,9.17,1111122 
DISL,ioos:station:DISL:PPTA:1,2014-01-05T17:30:00Z,30.2791,-87.5561,1.196,9.22,1111122 
DISL,ioos:station:DISL:PPTA:1,2014-01-05T18:00:00Z,30.2791,-87.5561,1.21,9.33,1111122 
DISL,ioos:station:DISL:PPTA:1,2014-01-05T18:30:00Z,30.2791,-87.5561,1.187,9.54,1111122 
DISL,ioos:station:DISL:PPTA:1,2014-01-05T19:00:00Z,30.2791,-87.5561,1.214,9.16,1111122 
DISL,ioos:station:DISL:PPTA:1,2014-01-05T19:30:00Z,30.2791,-87.5561,1.223,9.36,1111122 
DISL,ioos:station:DISL:PPTA:1,2014-01-05T20:00:00Z,30.2791,-87.5561,1.25,9.07,1111122 
DISL,ioos:station:DISL:PPTA:1,2014-01-05T20:30:00Z,30.2791,-87.5561,1.255,9.11,1111122 
DISL,ioos:station:DISL:PPTA:1,2014-01-05T21:00:00Z,30.2791,-87.5561,1.252,9.12,1111122 
DISL,ioos:station:DISL:PPTA:1,2014-01-05T21:30:00Z,30.2791,-87.5561,1.277,8.97,1111122 
DISL,ioos:station:DISL:PPTA:1,2014-01-05T22:00:00Z,30.2791,-87.5561,1.274,8.91,1111122 
DISL,ioos:station:DISL:PPTA:1,2014-01-05T22:30:00Z,30.2791,-87.5561,1.27,8.85,1111122 
DISL,ioos:station:DISL:PPTA:1,2014-01-05T23:00:00Z,30.2791,-87.5561,1.29,8.84,1111122 
DISL,ioos:station:DISL:PPTA:1,2014-01-05T23:30:00Z,30.2791,-87.5561,1.3,8.75,1111122 
DISL,ioos:station:DISL:PPTA:1,2014-01-06T00:00:00Z,30.2791,-87.5561,1.317,8.76,1111122 
DISL,ioos:station:DISL:PPTA:1,2014-01-06T00:30:00Z,30.2791,-87.5561,1.321,8.71,1111122 
DISL,ioos:station:DISL:PPTA:1,2014-01-06T01:00:00Z,30.2791,-87.5561,1.347,8.68,1111122 
DISL,ioos:station:DISL:PPTA:1,2014-01-06T01:30:00Z,30.2791,-87.5561,1.36,8.72,1111122 
DISL,ioos:station:DISL:PPTA:1,2014-01-06T02:00:00Z,30.2791,-87.5561,1.356,8.66,1111122 
DISL,ioos:station:DISL:PPTA:1,2014-01-06T02:30:00Z,30.2791,-87.5561,1.385,8.71,1111122 
DISL,ioos:station:DISL:PPTA:1,2014-01-06T03:00:00Z,30.2791,-87.5561,1.414,8.65,1111122 
DISL,ioos:station:DISL:PPTA:1,2014-01-06T03:30:00Z,30.2791,-87.5561,1.393,8.65,1111122 
DISL,ioos:station:DISL:PPTA:1,2014-01-06T04:00:00Z,30.2791,-87.5561,1.392,8.61,1111122 
DISL,ioos:station:DISL:PPTA:1,2014-01-06T04:30:00Z,30.2791,-87.5561,1.423,8.78,1111122 
DISL,ioos:station:DISL:PPTA:1,2014-01-06T05:00:00Z,30.2791,-87.5561,1.363,8.66,1111122 
DISL,ioos:station:DISL:PPTA:1,2014-01-06T05:30:00Z,30.2791,-87.5561,1.281,8.62,1111122 
DISL,ioos:station:DISL:PPTA:1,2014-01-06T06:00:00Z,30.2791,-87.5561,1.278,8.76,1111122 
DISL,ioos:station:DISL:PPTA:1,2014-01-06T06:30:00Z,30.2791,-87.5561,1.297,8.79,1111122 
DISL,ioos:station:DISL:PPTA:1,2014-01-06T07:00:00Z,30.2791,-87.5561,1.278,8.79,1111122 
DISL,ioos:station:DISL:PPTA:1,2014-01-06T07:30:00Z,30.2791,-87.5561,1.314,8.87,1111122 
DISL,ioos:station:DISL:PPTA:1,2014-01-06T08:00:00Z,30.2791,-87.5561,1.281,8.77,1111122 
DISL,ioos:station:DISL:PPTA:1,2014-01-06T08:30:00Z,30.2791,-87.5561,1.27,8.82,1111122 
DISL,ioos:station:DISL:PPTA:1,2014-01-06T09:00:00Z,30.2791,-87.5561,1.272,8.83,1111122 
DISL,ioos:station:DISL:PPTA:1,2014-01-06T09:30:00Z,30.2791,-87.5561,1.231,8.76,1111122 
DISL,ioos:station:DISL:PPTA:1,2014-01-06T10:00:00Z,30.2791,-87.5561,1.209,8.93,1111122 
DISL,ioos:station:DISL:PPTA:1,2014-01-06T10:30:00Z,30.2791,-87.5561,1.172,8.76,1111122 
DISL,ioos:station:DISL:PPTA:1,2014-01-06T11:00:00Z,30.2791,-87.5561,1.158,9.09,1111122 
DISL,ioos:station:DISL:PPTA:1,2014-01-06T11:30:00Z,30.2791,-87.5561,1.14,9.2,1111122 
DISL,ioos:station:DISL:PPTA:1,2014-01-06T12:00:00Z,30.2791,-87.5561,1.105,9.2,1111122 
DISL,ioos:station:DISL:PPTA:1,2014-01-06T12:30:00Z,30.2791,-87.5561,1.062,9.25,1111122 
DISL,ioos:station:DISL:PPTA:1,2014-01-06T13:00:00Z,30.2791,-87.5561,1.101,9.39,1111122 
DISL,ioos:station:DISL:PPTA:1,2014-01-06T13:30:00Z,30.2791,-87.5561,1.061,9.38,1111122 
DISL,ioos:station:DISL:PPTA:1,2014-01-06T14:00:00Z,30.2791,-87.5561,1.063,9.68,1111122 
DISL,ioos:station:DISL:PPTA:1,2014-01-06T14:30:00Z,30.2791,-87.5561,1.066,9.72,1111122 
DISL,ioos:station:DISL:PPTA:1,2014-01-06T15:00:00Z,30.2791,-87.5561,1.041,9.71,1111122 
DISL,ioos:station:DISL:PPTA:1,2014-01-06T15:30:00Z,30.2791,-87.5561,1.029,9.79,1111122 
DISL,ioos:station:DISL:PPTA:1,2014-01-06T16:00:00Z,30.2791,-87.5561,1.021,9.86,1111122 
DISL,ioos:station:DISL:PPTA:1,2014-01-06T16:30:00Z,30.2791,-87.5561,1.014,9.91,1111122 
DISL,ioos:station:DISL:PPTA:1,2014-01-06T17:00:00Z,30.2791,-87.5561,1.003,9.98,1111122 
DISL,ioos:station:DISL:PPTA:1,2014-01-06T17:30:00Z,30.2791,-87.5561,0.985,10.01,1111122 
DISL,ioos:station:DISL:PPTA:1,2014-01-06T18:00:00Z,30.2791,-87.5561,0.967,10.01,1111122 
DISL,ioos:station:DISL:PPTA:1,2014-01-06T18:30:00Z,30.2791,-87.5561,0.957,10.04,1111122 
DISL,ioos:station:DISL:PPTA:1,2014-01-06T19:00:00Z,30.2791,-87.5561,0.983,10.09,1111122 
DISL,ioos:station:DISL:PPTA:1,2014-01-06T19:30:00Z,30.2791,-87.5561,1.011,10.16,1111122 
DISL,ioos:station:DISL:PPTA:1,2014-01-06T20:00:00Z,30.2791,-87.5561,0.974,10.17,1111122 
DISL,ioos:station:DISL:PPTA:1,2014-01-06T20:30:00Z,30.2791,-87.5561,0.97,10.11,1111122 
DISL,ioos:station:DISL:PPTA:1,2014-01-06T21:00:00Z,30.2791,-87.5561,0.961,10.27,1111122 
DISL,ioos:station:DISL:PPTA:1,2014-01-06T21:30:00Z,30.2791,-87.5561,0.945,10.21,1111122 
DISL,ioos:station:DISL:PPTA:1,2014-01-06T22:00:00Z,30.2791,-87.5561,0.937,10.26,1111122 